Temp
9 9 9 9 9 9 9 9 10 10 10 10 10 10 10 10 10 10 10 10 10 9 9 10 10 13 14 15 15 14 14 15 15 13 14 22 25 25 25 25 25 23 22 23 23 22 21 22 22 22 23 23 23 23 22 22 22 22 23 23 22 23 23 24 24 24 24 24 23 23 24 25 24 24 24 25 24 24 24 24 24 23 23 23 22 22 22 22
9 9 9 10 10 9 9 10 10 10 10 10 10 10 10 10 10 10 10 9 9 9 9 9 11 12 13 14 14 13 14 14 13 13 19 26 25 25 26 25 25 23 22 22 23 22 21 22 22 22 23 23 23 23 22 23 22 23 23 23 22 23 24 23 24 24 24 24 23 23 24 25 25 24 25 25 24 24 23 23 23 22 22 22 22 22 22 22
9 9 10 9 9 9 9 10 10 10 10 10 10 10 10 10 10 10 10 9 9 9 9 10 11 11 12 13 12 13 13 12 16 20 25 28 26 26 26 25 25 24 23 23 24 24 23 23 22 23 23 23 23 22 22 23 22 23 23 23 23 23 23 23 23 24 24 24 23 23 24 25 24 25 25 24 23 24 23 22 22 22 22 22 22 22 22 22
9 9 9 9 9 9 9 9 10 10 10 10 10 9 9 9 9 9 9 9 9 9 10 10 11 11 11 11 12 14 12 15 23 26 26 27 27 27 25 24 24 23 23 23 24 25 24 23 23 23 23 23 23 22 22 23 23 23 23 23 23 23 23 23 23 24 24 24 24 24 24 25 24 25 25 24 24 23 23 23 23 22 22 22 22 23 22 22
9 9 9 9 9 9 9 9 9 10 10 10 10 9 9 10 10 10 10 10 10 10 10 10 10 10 11 11 12 13 14 22 27 26 25 26 27 27 26 24 23 23 23 23 24 24 24 23 23 24 23 23 23 22 23 23 23 23 23 23 23 23 23 23 23 23 24 24 24 24 24 24 25 25 24 24 24 23 23 24 23 23 22 22 22 23 22 22
9 9 9 9 9 10 10 9 9 10 10 10 10 9 9 10 11 12 11 11 11 11 11 10 10 10 11 12 12 13 17 25 25 25 26 26 27 27 25 24 23 23 23 24 24 24 23 23 23 23 23 23 23 22 23 23 24 23 23 23 23 24 23 23 23 23 24 24 24 24 24 24 25 25 24 25 25 24 25 24 23 23 23 23 23 23 22 22
10 10 10 10 10 10 10 10 10 9 10 10 11 10 10 11 13 14 14 13 12 11 11 10 9 10 12 12 13 14 17 23 25 25 26 26 27 26 24 24 23 23 24 23 23 24 24 23 23 24 24 24 23 23 24 24 24 23 23 23 23 23 23 23 23 23 24 24 23 24 24 24 25 24 24 25 25 25 25 24 24 24 24 23 23 23 22 22
11 11 11 11 11 11 11 11 11 10 10 11 12 12 12 12 14 15 15 13 12 11 10 10 10 10 12 12 14 17 19 23 26 26 26 27 26 25 24 23 23 23 23 23 23 23 24 23 24 24 24 24 24 24 24 24 24 23 24 24 23 23 23 23 23 23 23 23 23 24 24 23 24 24 25 25 25 25 25 24 24 24 23 23 23 23 23 22
13 13 13 13 12 12 12 12 12 12 11 12 13 13 13 13 14 15 15 14 12 11 9 10 10 10 12 12 15 20 23 24 26 26 26 27 26 24 24 23 23 23 23 24 24 24 24 24 24 25 25 25 25 25 25 24 24 24 24 24 23 23 23 23 23 23 23 23 24 24 23 23 23 24 25 25 25 25 24 24 24 24 23 23 23 23 23 23
15 15 15 14 14 13 13 13 13 13 13 13 13 13 13 14 15 16 15 14 13 11 9 10 10 11 12 12 16 22 25 25 25 25 26 26 26 25 24 24 24 24 23 23 24 24 24 25 25 26 25 25 26 26 25 25 25 25 24 24 24 23 23 23 23 23 23 23 24 24 23 23 24 25 25 25 25 25 24 24 24 24 23 23 23 23 23 23
16 16 16 16 15 15 15 14 13 13 13 14 14 14 14 15 16 17 16 14 13 11 10 10 10 11 12 13 18 23 24 25 24 25 25 26 26 25 25 25 24 24 23 22 23 24 25 25 26 26 25 25 26 26 25 26 26 25 25 24 23 23 23 23 23 23 24 23 24 24 23 23 24 24 25 25 25 25 24 24 24 24 23 23 23 23 23 23
16 16 16 16 16 17 16 15 15 14 14 14 15 15 16 16 16 16 16 15 13 11 10 10 10 12 12 14 18 22 25 24 24 24 24 26 26 25 25 25 25 25 24 23 23 24 25 26 26 26 26 26 26 26 26 26 26 25 25 24 23 23 23 23 23 23 24 23 23 25 23 23 24 24 24 25 25 25 24 24 24 24 24 24 24 23 23 23
16 17 17 17 17 17 17 16 16 15 15 16 16 16 16 16 17 17 16 15 13 11 10 11 11 12 14 18 21 23 25 24 23 23 24 25 25 24 24 25 25 25 25 24 23 25 25 25 26 26 26 25 25 26 27 27 26 25 25 24 23 23 23 22 23 24 24 23 23 25 23 22 24 24 24 25 25 24 24 24 24 24 24 24 24 23 23 23
17 17 17 17 18 17 17 17 17 16 16 17 17 17 17 17 17 17 16 15 13 11 10 11 12 13 15 20 23 24 24 24 24 23 23 24 24 23 23 23 24 24 24 25 25 25 25 25 26 25 26 25 26 27 26 26 25 25 25 24 24 23 22 22 22 23 24 22 23 24 22 22 24 24 25 25 25 24 24 24 24 24 24 24 23 23 23 23
17 17 17 17 18 17 18 18 17 17 17 17 17 17 18 18 17 17 16 15 12 11 11 11 12 13 16 20 23 24 24 24 24 24 24 24 24 23 22 23 23 23 24 25 25 25 25 26 25 25 26 26 26 26 25 25 25 25 24 23 23 23 22 22 22 23 24 23 23 23 23 23 24 24 25 25 25 24 24 24 24 24 24 24 23 24 23 24
17 17 17 18 18 18 18 18 18 18 17 17 17 18 18 17 17 16 16 14 12 11 12 13 13 13 18 22 23 24 24 24 25 25 25 24 25 23 22 23 23 23 23 24 25 25 25 26 25 25 26 26 26 26 25 24 23 25 24 21 22 22 22 22 22 22 23 23 23 23 23 23 24 24 25 25 25 24 24 24 24 24 24 24 24 24 24 24
17 17 18 18 18 18 18 18 19 18 18 18 18 18 17 17 16 15 14 13 12 12 13 14 13 13 19 23 24 24 24 24 25 25 24 24 25 24 22 22 22 22 23 24 25 25 25 26 25 25 26 26 26 25 23 21 21 23 23 22 23 23 22 22 22 22 23 24 23 23 24 24 24 24 24 25 25 24 24 24 24 24 24 24 24 24 24 24
18 18 18 18 19 19 18 19 19 18 18 18 18 17 17 16 15 15 14 13 12 13 14 13 13 16 21 24 24 24 24 25 25 25 23 23 24 24 23 23 22 22 23 24 25 25 25 25 25 25 26 25 25 25 23 21 22 22 22 22 22 23 23 23 23 22 23 24 24 24 24 24 24 24 24 25 25 24 24 24 24 24 24 24 24 24 24 24
18 18 19 19 19 19 19 19 19 19 18 18 17 16 16 15 15 15 13 13 15 17 19 17 17 21 23 23 23 24 25 25 25 25 23 24 24 24 24 24 23 23 24 24 24 25 25 25 25 24 25 25 25 25 25 25 25 24 24 23 22 22 23 23 24 23 23 23 23 24 24 24 24 24 24 24 25 25 24 25 24 24 24 24 24 24 24 24
18 19 19 19 19 19 19 19 19 19 19 18 17 16 17 18 18 18 15 14 16 20 22 21 20 22 22 23 23 24 25 25 25 25 24 25 25 24 24 24 24 24 25 25 24 24 25 25 24 24 25 26 26 26 27 27 26 25 25 24 23 22 22 24 24 23 23 23 23 24 24 23 24 24 24 24 24 25 25 25 25 24 24 24 24 25 25 25
19 19 19 20 20 20 20 20 19 19 19 18 17 18 20 21 21 21 19 18 18 17 20 21 20 21 22 23 23 24 25 25 25 25 24 26 25 24 25 25 25 25 24 25 25 25 25 24 24 26 26 27 27 27 27 28 27 27 25 23 23 23 23 24 24 22 23 23 23 24 24 23 24 24 23 23 24 25 25 25 25 25 25 25 25 25 25 25
19 19 20 20 20 20 20 20 19 19 19 18 18 18 20 21 21 22 21 21 20 18 19 19 19 20 21 22 23 23 23 24 26 25 25 26 25 25 25 25 25 25 24 25 25 25 24 24 25 26 25 26 27 26 27 28 27 26 25 23 22 23 23 23 23 23 22 23 23 23 23 23 24 23 23 23 24 24 25 25 25 25 25 25 25 25 25 25
19 19 20 20 21 20 20 20 19 19 19 18 18 18 20 21 22 21 21 21 21 21 20 19 20 21 21 22 23 23 24 25 26 26 26 26 25 25 25 25 25 25 24 25 25 23 23 24 26 25 25 26 26 26 27 27 26 25 25 23 22 23 23 22 23 23 22 23 23 23 23 23 23 23 23 23 23 23 24 25 25 25 25 25 25 25 25 25
19 19 20 21 21 21 21 20 20 20 20 19 19 21 22 22 21 21 21 21 21 22 22 21 22 23 24 25 24 24 25 25 25 26 26 26 26 25 26 26 25 25 24 25 25 24 24 25 25 24 25 27 26 26 27 27 25 25 25 24 23 23 24 23 22 22 22 23 23 23 22 22 23 23 23 23 22 23 24 24 25 25 25 25 25 26 26 25
19 20 20 21 21 21 21 20 20 21 21 20 22 23 23 22 22 22 22 21 21 23 23 22 22 24 25 25 25 25 26 26 26 26 26 26 26 25 26 25 25 25 24 24 25 25 25 25 25 25 25 26 26 26 27 27 25 24 25 25 24 24 24 24 23 22 22 22 23 23 21 21 22 23 23 23 22 23 24 24 25 25 25 25 25 25 25 26
19 20 20 21 22 21 21 21 21 21 21 22 23 24 23 23 23 23 22 21 21 23 25 24 24 25 26 25 25 25 26 26 27 26 26 27 27 27 26 25 25 25 24 25 25 25 25 25 26 26 26 26 26 26 26 27 24 23 26 27 25 25 24 23 23 22 21 21 23 24 21 21 22 22 23 23 22 23 24 24 25 25 25 25 25 25 25 26
20 20 20 21 22 21 21 22 22 21 22 24 24 24 23 23 23 23 22 20 21 23 24 24 25 26 26 25 25 26 25 25 26 26 27 27 27 27 26 25 25 25 25 25 23 24 26 26 26 26 26 25 25 25 26 27 25 24 27 27 25 25 24 24 24 22 22 22 23 23 22 21 21 22 23 23 22 23 23 24 24 25 25 25 25 25 25 26
20 20 20 21 21 21 21 22 21 21 23 24 24 24 24 23 23 23 21 20 21 23 24 25 25 26 26 25 26 26 25 25 26 26 27 27 27 27 26 26 26 26 26 25 23 24 26 26 26 26 26 25 25 26 26 27 26 25 26 26 25 25 24 24 24 22 22 22 21 22 22 21 21 22 23 23 22 23 23 24 24 24 25 25 25 25 25 26
20 20 20 21 21 21 21 20 20 22 24 24 23 24 24 23 23 22 21 20 22 24 25 25 26 26 26 26 26 27 26 26 26 26 26 27 27 27 26 26 26 26 26 25 24 25 26 27 27 27 26 26 27 28 27 27 27 26 25 25 25 25 24 24 23 22 22 22 21 21 22 21 21 21 22 22 22 23 23 24 24 24 24 25 25 25 25 25
20 20 21 21 21 21 20 20 22 24 24 23 23 23 23 23 23 21 20 21 22 24 25 25 25 26 26 26 26 26 26 26 26 26 26 27 27 27 26 25 26 26 26 25 25 26 26 26 27 27 27 27 28 27 27 27 27 26 25 25 24 24 23 23 23 22 22 21 21 22 22 22 21 21 22 22 23 23 23 23 24 24 24 24 25 25 25 25
21 21 21 22 22 21 20 22 24 24 23 23 23 23 23 22 22 20 20 22 23 23 25 25 25 25 26 26 25 26 26 26 26 26 26 26 27 27 26 25 26 25 24 24 25 25 26 25 26 28 28 28 28 27 26 26 27 26 26 24 23 22 23 22 22 22 21 21 22 22 22 22 21 21 23 24 24 24 24 24 24 24 24 24 24 24 25 25
22 21 22 23 23 22 22 24 25 24 23 23 23 23 23 22 21 20 21 22 22 23 25 25 25 25 26 25 25 26 26 26 26 26 26 25 26 26 26 25 25 24 22 22 24 24 26 26 27 28 28 28 28 26 25 25 26 26 25 23 22 21 21 21 20 21 21 21 22 23 22 22 21 22 23 24 25 25 24 24 24 24 23 23 23 23 24 24
22 22 23 24 24 24 24 25 24 23 23 23 22 23 23 21 20 21 21 22 22 23 24 24 25 25 25 25 25 25 25 25 26 26 25 25 25 25 25 25 25 24 22 22 22 23 24 26 27 27 27 28 28 26 24 24 25 25 23 22 21 20 20 20 20 20 21 21 22 23 23 22 22 22 23 23 24 25 25 25 25 24 23 23 23 23 24 24
23 24 24 25 25 25 25 25 24 23 23 23 23 23 22 21 21 21 22 22 23 24 24 24 25 25 25 25 24 25 25 25 25 26 25 25 25 24 25 24 24 25 24 23 22 22 22 23 26 28 27 28 29 28 26 26 25 25 26 25 22 21 21 21 20 21 21 21 21 22 22 21 21 22 23 23 24 25 25 24 24 23 22 23 23 23 24 24
23 24 24 25 26 26 26 25 25 24 23 23 24 23 21 20 21 21 22 23 24 24 24 24 25 25 24 24 24 24 25 25 24 25 25 25 24 23 24 25 24 25 25 23 22 22 21 22 26 28 27 28 29 28 28 27 24 25 27 25 23 23 23 21 21 21 21 21 21 21 21 21 22 23 23 24 24 24 24 23 23 22 22 23 23 23 24 24
24 24 25 26 26 26 26 25 25 25 24 24 24 22 21 21 22 22 23 24 24 24 24 23 24 24 23 24 24 24 25 25 24 24 24 23 23 23 23 24 25 25 25 23 23 23 21 23 27 28 27 28 28 28 28 27 25 25 24 24 24 26 26 22 21 22 21 21 21 21 21 21 22 23 23 24 24 23 23 22 23 22 22 23 23 23 23 24
24 24 25 25 25 26 25 25 25 25 24 24 23 22 22 23 23 23 24 24 24 24 24 23 22 22 22 22 23 24 25 25 24 24 23 22 23 23 24 24 24 25 25 24 24 24 22 23 27 28 28 28 28 28 29 28 27 25 23 25 26 26 26 24 21 21 21 21 21 21 21 21 21 22 22 23 23 23 22 22 23 23 23 23 23 23 23 23
22 23 24 24 25 25 25 25 25 24 24 24 23 22 22 23 24 23 24 24 24 24 24 22 22 22 22 22 22 24 24 24 23 23 22 22 23 23 24 24 25 24 24 23 24 24 23 22 25 28 27 27 28 28 27 27 28 27 26 27 27 24 23 23 22 21 21 21 21 20 20 21 21 21 22 23 23 23 23 22 22 22 23 23 23 23 23 23
21 23 24 24 25 25 24 24 24 25 24 23 22 22 22 24 25 24 24 24 24 24 24 22 22 22 22 22 23 23 23 23 23 23 22 22 23 24 24 23 24 24 23 24 25 24 24 22 23 27 27 27 28 27 25 25 28 28 27 28 27 25 23 23 22 22 21 21 20 21 20 21 21 22 22 23 22 23 23 22 22 22 23 23 23 23 23 23
20 24 25 24 24 24 23 24 24 25 24 22 22 23 23 24 25 25 24 24 24 25 24 23 23 23 23 23 23 23 24 23 23 23 22 22 22 24 24 23 23 24 23 24 24 24 24 22 22 26 27 25 26 26 26 26 27 26 25 25 25 25 24 24 23 22 21 21 21 21 21 21 21 21 22 22 22 22 23 23 22 22 22 23 23 22 22 22
19 24 24 23 24 24 23 24 24 23 23 22 22 23 23 24 25 25 25 25 25 25 24 24 24 23 23 23 23 23 24 24 23 23 23 23 22 23 24 23 22 23 23 25 25 24 23 22 22 23 24 24 25 26 26 27 27 27 26 26 26 25 23 23 22 21 21 21 21 21 21 21 21 21 22 22 22 23 23 22 22 22 22 22 22 22 22 22
21 25 24 23 24 23 23 25 23 20 22 23 23 23 24 25 25 25 25 25 25 25 25 24 24 24 23 23 23 23 23 23 23 23 23 23 23 23 24 23 22 22 23 25 24 23 23 23 22 22 23 24 26 26 24 24 26 28 28 27 27 26 24 23 22 21 21 21 21 21 21 21 21 21 22 22 22 22 22 21 21 21 21 21 21 21 21 21
23 23 24 24 23 23 23 24 23 22 24 24 23 23 24 24 24 25 25 24 25 25 25 25 24 24 23 23 23 23 23 23 22 23 23 23 23 24 23 23 23 23 24 24 24 24 23 22 22 22 24 25 26 26 25 25 26 28 27 26 26 27 26 25 23 23 21 21 21 21 21 21 21 21 21 21 21 21 21 21 20 20 20 21 21 20 21 21
20 20 22 23 24 25 25 24 24 24 24 24 24 24 24 24 24 24 24 24 24 24 25 24 24 24 24 23 23 23 22 22 22 22 23 23 24 24 23 23 23 23 23 23 24 24 23 21 21 22 22 23 24 25 25 26 27 26 26 26 26 26 26 25 24 23 22 21 21 22 21 21 21 21 21 21 21 20 20 20 20 20 20 20 20 20 20 20
19 20 21 22 23 24 24 23 23 24 23 23 24 24 24 25 24 24 23 23 23 23 24 24 24 24 23 23 23 23 22 22 23 22 23 23 24 24 24 23 23 23 23 23 23 23 23 22 21 22 21 21 21 22 23 24 24 24 25 25 25 25 26 25 23 22 22 21 21 22 21 20 20 20 20 20 20 20 20 20 20 20 20 20 19 20 20 20
21 22 22 22 23 23 22 21 21 23 23 23 24 23 23 24 24 23 24 23 23 23 23 23 23 24 24 23 23 23 22 22 22 22 23 23 24 24 23 23 23 23 24 23 22 23 24 22 21 22 21 21 21 22 23 23 23 24 24 25 24 24 26 26 23 22 22 21 21 21 20 20 21 20 20 20 20 20 20 20 20 20 20 20 20 20 19 19
20 21 20 21 22 23 22 21 20 21 22 23 23 23 22 23 23 24 24 23 23 22 22 21 21 23 24 23 23 22 22 22 22 22 22 22 23 23 22 23 23 23 24 23 22 23 24 22 21 22 22 22 22 22 22 22 23 23 24 24 24 25 26 25 23 23 23 22 21 21 20 20 21 21 20 20 20 20 20 20 20 20 20 20 20 20 19 19
20 20 18 19 21 22 22 22 20 20 21 22 23 22 22 23 23 23 23 23 22 22 23 22 20 20 22 22 23 22 21 22 22 22 21 21 22 23 23 24 24 23 23 23 22 23 23 22 21 22 23 23 22 21 22 23 24 23 23 23 24 24 26 26 24 23 23 23 22 21 20 21 21 21 21 20 20 20 20 21 21 21 20 20 20 20 19 19
19 19 18 17 19 20 20 20 19 20 22 23 23 23 22 22 22 22 22 23 23 22 22 22 21 19 20 22 22 22 21 21 22 21 22 22 21 22 23 23 24 23 23 23 22 21 22 22 21 21 23 24 23 22 22 24 24 23 22 23 23 23 24 24 23 22 22 23 22 21 20 21 22 21 21 20 20 20 21 21 21 21 20 20 20 19 19 19
17 18 17 18 19 19 19 19 19 21 23 22 22 23 22 22 22 22 21 21 22 22 21 21 20 20 20 21 22 22 21 21 22 22 22 22 22 22 22 22 23 23 23 23 22 21 22 22 20 21 23 23 23 23 23 23 23 23 23 23 23 22 22 23 22 22 22 21 20 21 21 21 21 21 21 20 20 20 20 20 20 21 20 20 19 19 19 19
15 15 16 18 20 19 19 19 19 21 23 22 22 23 22 22 22 21 21 21 21 22 22 21 21 20 21 21 21 22 21 21 22 22 22 22 22 22 22 22 22 23 23 22 21 22 22 22 21 22 22 22 22 23 23 24 24 24 23 23 23 22 22 22 22 22 22 21 20 20 21 20 20 21 20 20 20 20 20 20 20 20 20 20 19 19 19 19
14 15 15 17 20 19 18 19 19 21 23 22 22 22 22 22 21 21 22 22 21 21 21 21 21 21 21 22 22 22 22 22 22 22 21 21 21 21 21 21 21 22 23 22 21 20 20 21 22 22 21 21 22 22 23 24 23 22 22 22 22 23 22 22 22 22 22 21 20 21 21 21 21 20 20 19 19 20 20 20 20 20 20 20 19 19 19 18
Height
793 792 791 790 789 788 787 787 786 785 784 783 782 781 780 780 779 778 778 777 776 775 775 774 773 773 772 771 770 769 769 767 766 767 763 752 752 756 757 759 760 762 764 766 768 771 774 777 778 779 781 783 784 785 786 786 787 793 800 808 810 806 803 798 796 796 795 797 799 797 795 797 802 800 796 796 803 807 807 806 806 806 806 809 812 815 818 820
792 791 790 789 788 787 787 786 785 784 783 782 781 780 779 778 778 777 776 775 775 774 774 773 773 772 771 771 770 769 768 766 766 764 754 748 752 754 756 758 760 761 762 764 767 768 773 776 777 779 782 786 786 786 788 787 788 795 801 808 808 801 797 792 793 793 792 796 798 797 796 797 800 800 796 802 811 810 812 813 811 812 813 813 815 818 820 820
791 791 790 789 788 786 786 785 784 783 782 781 780 779 778 777 776 776 775 774 774 774 773 773 772 772 771 771 770 769 769 767 764 756 746 746 750 752 754 757 759 760 761 763 765 767 770 773 776 779 783 788 787 788 792 790 791 794 800 807 803 795 793 791 791 791 791 793 797 798 796 798 799 797 797 805 812 812 815 815 814 818 817 816 817 818 821 822
791 790 788 787 786 785 785 784 783 782 781 780 779 778 777 776 775 774 774 773 773 773 772 772 772 771 771 770 770 769 769 768 759 748 745 746 747 750 754 756 757 760 762 763 766 769 770 772 776 778 784 790 789 790 794 792 793 795 798 803 796 792 794 791 790 790 789 790 795 798 798 801 799 796 800 804 813 817 814 809 810 814 814 815 818 818 820 823
790 789 788 787 785 784 783 782 781 780 780 779 778 777 776 775 774 773 773 773 772 772 772 772 771 771 771 770 770 769 769 767 754 744 746 746 746 749 752 754 757 760 762 765 768 770 771 774 776 780 786 791 792 794 795 789 790 797 798 795 792 791 794 792 788 789 789 790 793 797 800 802 798 799 802 804 812 815 808 804 804 807 809 811 815 818 820 823
789 788 787 786 784 784 782 781 780 779 778 777 776 775 774 774 772 772 772 772 771 771 771 771 771 771 770 770 770 770 770 764 749 745 746 745 745 748 751 754 756 760 762 765 767 769 772 774 778 784 788 791 794 795 793 787 787 799 799 792 791 789 790 790 788 789 789 792 796 798 799 799 801 804 804 805 809 807 802 802 803 806 808 810 814 817 820 822
789 787 786 785 784 783 781 780 779 778 777 775 775 774 773 772 771 771 770 771 771 770 770 770 770 770 770 770 770 770 771 760 746 746 746 745 746 747 752 754 756 760 762 764 766 769 772 776 781 784 788 792 793 792 790 787 788 798 800 793 793 790 789 789 787 790 790 795 798 796 798 801 805 807 805 806 806 803 802 802 803 807 809 812 815 818 820 823
788 787 785 784 783 781 780 779 777 776 775 774 773 772 772 771 770 770 769 770 770 770 770 769 770 770 770 771 770 770 769 756 745 747 746 746 748 749 753 755 757 760 761 765 765 768 772 777 781 782 789 791 788 789 788 790 794 797 798 794 793 792 790 788 787 791 792 796 798 797 802 805 805 804 806 808 806 803 803 803 805 808 811 814 817 819 821 823
787 786 784 783 782 780 779 777 776 775 774 773 772 771 770 770 769 769 769 769 768 769 769 769 770 769 770 770 771 769 760 749 746 747 746 747 748 750 753 755 758 760 762 765 765 768 771 776 778 778 786 786 784 787 785 792 798 794 793 793 793 794 792 789 790 792 793 795 797 801 807 807 803 803 808 808 804 804 804 806 807 809 814 816 818 820 821 823
786 785 783 782 780 779 778 776 775 774 773 772 771 770 769 768 768 768 768 768 767 768 768 769 769 769 771 770 771 768 753 745 747 746 747 748 749 752 754 755 758 759 762 765 766 768 769 772 774 772 779 782 782 784 784 789 789 785 789 791 792 794 793 791 793 793 794 796 797 803 810 808 802 805 813 809 803 804 808 810 810 811 816 817 819 821 822 824
785 784 783 781 780 778 777 776 774 773 772 771 770 769 768 767 767 767 767 767 766 767 767 768 768 770 771 770 770 764 749 746 748 746 748 748 749 751 753 755 757 759 762 764 767 767 768 770 769 772 780 782 781 782 782 781 780 783 788 793 795 795 795 793 795 796 795 800 799 802 810 809 805 809 813 808 803 805 810 813 813 814 817 818 820 821 823 825
785 783 782 780 779 777 776 775 773 772 771 769 769 767 767 767 766 766 766 766 766 766 766 767 768 769 770 771 767 756 747 747 748 748 749 749 750 752 752 755 757 759 761 763 767 767 769 770 769 776 780 779 783 786 782 774 777 784 787 798 802 798 800 799 797 797 797 803 799 798 814 817 812 813 810 805 805 806 811 815 815 817 818 818 820 822 824 825
784 782 781 780 778 777 775 774 772 771 770 768 768 767 766 766 766 765 765 765 765 766 767 767 768 769 771 768 757 748 747 748 749 749 750 751 752 753 755 757 758 760 762 763 766 767 769 770 771 776 775 779 785 782 777 774 779 788 789 798 805 806 809 804 799 798 799 804 797 799 824 828 816 812 808 804 806 809 815 817 817 819 819 820 821 823 825 825
783 782 780 779 777 776 774 773 772 770 769 768 767 766 766 766 766 765 765 765 765 766 767 768 769 769 770 762 749 747 748 747 749 749 750 751 752 755 757 758 760 762 764 765 766 767 769 770 772 774 774 778 780 776 779 783 785 792 795 800 805 813 817 807 801 801 804 806 797 803 826 828 817 811 807 805 806 810 817 818 819 820 820 821 822 824 826 825
782 781 779 778 777 775 774 772 771 770 768 767 766 766 765 765 765 765 765 765 766 767 767 769 769 769 770 760 747 747 747 746 747 747 749 751 752 755 757 758 761 763 765 767 767 768 770 771 774 778 778 775 776 782 790 792 792 794 804 812 809 812 816 810 804 802 805 807 801 809 824 825 818 813 807 806 808 811 817 819 820 821 821 822 824 825 826 826
782 780 779 777 776 774 773 772 771 770 768 766 766 766 765 766 765 765 766 765 766 767 768 770 769 770 769 758 747 746 747 746 746 746 748 750 751 754 756 759 761 764 767 767 768 769 770 772 775 778 779 778 782 790 796 802 804 799 806 818 814 813 817 813 808 803 803 806 807 811 821 824 818 812 808 807 810 813 817 820 820 822 822 822 824 825 827 827
781 780 778 777 775 774 772 771 770 769 767 766 766 765 766 766 765 766 766 766 767 767 768 770 769 770 764 750 747 749 746 746 746 746 747 749 752 753 755 759 762 765 767 768 769 770 771 774 778 779 780 784 785 790 804 817 817 807 807 814 812 812 815 815 814 807 802 806 811 811 816 820 815 811 810 809 810 815 818 821 821 822 822 823 824 825 827 828
781 779 777 776 774 773 771 770 769 768 767 766 766 766 766 766 767 767 767 767 768 769 770 770 770 771 762 750 750 750 746 746 745 745 747 750 752 753 754 758 761 765 769 771 772 772 775 777 780 785 785 787 788 792 807 815 811 810 810 812 813 812 812 813 813 807 804 808 812 814 817 818 815 812 812 810 811 815 818 820 821 821 822 823 824 825 826 828
780 778 776 775 773 772 771 769 769 768 767 766 766 766 766 766 767 767 768 769 769 767 766 766 765 765 761 752 748 747 744 745 745 745 747 749 752 754 755 757 761 765 771 776 778 776 778 782 786 791 790 789 791 791 795 796 795 800 802 806 814 815 812 809 807 804 805 812 815 815 818 819 817 815 814 813 812 815 818 819 821 822 822 823 824 825 826 827
780 778 776 774 772 771 770 768 768 768 767 766 766 766 767 768 768 768 769 768 765 760 757 758 758 758 756 751 747 746 744 744 745 745 747 748 751 755 756 758 762 766 771 777 781 777 778 788 793 791 789 786 786 786 785 785 789 793 797 803 809 813 813 807 805 805 803 813 819 814 816 818 816 816 816 816 814 816 819 820 822 822 822 823 823 824 825 825
779 777 775 773 771 770 769 768 767 767 766 766 766 766 767 768 770 769 766 762 757 754 754 753 754 754 750 748 746 746 746 746 745 745 747 748 750 757 760 761 767 773 774 775 778 777 780 792 792 784 783 781 780 782 783 784 787 790 797 804 808 811 812 805 805 808 804 813 820 814 817 820 816 817 817 816 817 818 818 819 821 821 821 821 822 824 824 823
778 776 774 772 771 769 768 767 766 766 766 766 766 766 765 765 766 764 763 763 755 751 753 752 753 753 747 745 745 745 751 752 749 747 747 748 751 759 763 764 770 776 775 775 780 784 789 792 786 781 782 781 781 782 783 785 788 792 796 804 811 811 812 809 806 809 809 816 822 819 820 822 817 816 817 816 817 817 816 816 817 819 820 821 821 823 823 823
777 775 773 772 770 768 767 766 765 765 765 764 764 764 764 762 761 760 762 766 760 750 750 752 752 751 747 745 744 745 752 754 754 751 746 749 754 758 762 766 772 775 777 779 783 791 795 789 780 781 782 781 784 785 784 787 790 794 797 805 812 810 810 815 813 812 813 816 820 819 822 824 821 819 819 818 817 817 815 815 815 815 817 818 818 819 821 823
775 773 772 770 769 768 766 764 764 764 764 763 763 762 761 760 759 760 760 765 764 753 747 748 747 747 746 742 741 745 750 750 752 750 745 749 755 758 761 766 772 777 779 779 782 788 790 782 778 782 782 781 785 787 786 789 793 795 796 800 807 807 805 810 814 815 815 815 815 818 828 829 824 825 824 819 818 817 816 815 816 815 814 814 816 817 818 820
774 772 770 769 769 767 765 764 763 763 763 761 761 760 760 759 758 758 760 769 769 755 746 746 745 744 740 740 741 743 747 748 748 747 744 746 753 758 762 764 770 779 781 780 783 786 784 778 777 782 784 783 786 788 787 788 793 797 794 791 796 801 803 806 812 816 823 826 816 817 835 836 825 825 824 821 821 820 817 817 817 816 815 816 818 818 818 819
773 771 769 768 767 766 766 764 763 763 762 760 760 760 759 758 757 756 763 776 773 758 750 749 748 745 739 742 742 741 752 753 743 742 743 744 747 753 763 767 768 776 779 777 781 783 780 775 775 780 784 785 787 788 786 785 794 799 788 783 790 796 802 808 810 816 826 828 815 813 831 838 830 826 823 822 825 823 819 818 817 816 816 816 817 817 818 818
772 770 768 767 766 766 765 763 763 763 761 760 759 759 758 757 757 755 765 784 780 761 754 752 748 744 741 743 740 746 763 758 744 743 743 744 746 747 763 771 770 773 771 775 786 783 777 777 778 779 782 787 789 788 785 783 792 795 781 780 790 796 803 806 807 815 820 820 818 816 823 834 835 828 821 821 826 826 822 819 817 815 815 815 814 815 816 817
770 768 767 766 765 765 763 763 763 761 760 760 757 758 758 756 757 758 774 795 784 760 754 751 744 741 740 741 741 748 757 753 753 753 741 743 748 749 764 770 769 772 767 776 791 783 774 778 779 778 783 788 787 782 780 780 787 789 780 782 789 793 801 803 808 817 816 820 830 826 822 834 838 827 821 823 828 828 824 819 816 815 814 814 814 814 814 814
769 767 765 764 764 763 763 763 762 759 759 758 757 757 756 755 757 763 783 796 778 756 753 749 744 744 744 744 746 749 749 750 756 754 743 746 748 750 762 765 765 770 767 773 783 778 772 771 770 774 781 783 778 774 773 777 783 783 781 785 790 797 803 807 814 819 818 827 835 827 823 834 840 831 826 829 827 825 821 817 814 814 813 813 813 813 813 814
767 765 763 763 762 762 762 761 759 758 757 756 757 755 754 757 763 778 796 793 774 761 753 749 750 750 750 752 754 753 752 753 752 750 749 752 750 750 758 759 761 768 771 773 775 773 768 765 765 769 772 771 769 770 771 774 778 779 784 791 798 804 807 811 816 815 826 835 828 821 821 828 836 832 825 822 817 815 816 817 815 813 814 813 812 811 812 813
765 763 762 761 761 761 761 759 757 757 756 755 755 753 755 763 772 791 799 782 771 766 755 752 755 752 754 759 760 756 755 755 753 754 757 758 757 759 762 764 766 773 779 778 775 773 770 770 768 763 760 762 767 771 773 773 773 777 788 796 807 815 814 820 823 821 837 839 818 813 818 824 834 830 818 812 806 806 811 814 813 813 814 812 811 810 810 811
763 761 760 759 759 759 759 758 755 755 755 754 754 754 761 774 783 793 790 774 772 770 759 757 757 754 756 759 760 758 758 759 756 757 762 764 766 766 767 771 773 781 791 787 780 776 771 769 766 760 756 758 767 776 779 779 776 781 792 799 816 833 832 838 842 838 844 834 813 812 818 824 829 821 813 809 803 803 804 805 807 810 811 811 810 811 810 810
761 759 758 757 757 757 756 756 755 755 754 752 755 757 765 784 792 789 783 776 773 765 757 758 756 755 757 759 761 759 758 761 759 759 763 766 769 769 769 770 769 777 788 788 785 782 775 769 763 763 760 755 761 775 785 789 785 787 795 799 816 837 846 856 857 849 843 829 813 811 818 826 824 815 811 808 801 799 798 800 803 805 808 809 810 810 810 810
758 757 756 755 755 755 755 755 754 754 753 752 757 762 773 791 792 782 778 775 768 760 758 759 757 758 760 762 764 760 761 765 760 760 764 766 772 775 772 770 770 771 777 784 786 784 787 782 766 762 762 755 756 764 771 778 784 785 783 787 802 816 829 844 847 841 837 830 822 817 822 830 825 814 807 801 797 795 795 799 802 804 806 807 809 810 809 810
756 755 755 754 754 754 754 754 753 753 753 753 760 770 783 793 789 782 778 769 763 761 760 759 758 763 766 765 763 760 760 765 764 764 769 772 778 781 776 772 771 770 775 784 785 783 791 785 761 754 755 752 755 756 755 768 786 785 776 784 797 794 797 815 823 820 823 832 834 826 825 826 817 807 800 795 796 796 797 801 803 806 807 807 810 810 809 810
755 754 754 753 754 754 753 753 753 753 753 756 767 778 785 785 780 778 771 762 762 763 762 763 763 769 773 769 767 763 757 761 766 769 775 779 779 780 778 773 770 770 772 780 782 782 789 779 757 753 754 749 751 752 751 762 779 784 783 788 787 777 780 800 815 815 817 830 836 829 827 824 816 810 802 798 800 800 802 803 803 807 807 808 811 811 810 810
754 753 753 753 753 753 753 753 753 753 754 761 773 781 781 774 769 769 763 759 761 761 763 771 773 775 778 775 773 768 761 763 768 772 780 784 780 777 776 772 769 769 768 772 775 776 783 778 759 754 756 749 745 749 750 750 760 778 788 781 775 777 781 791 813 827 827 832 835 831 831 829 826 822 811 805 806 805 805 804 803 806 806 808 811 810 810 810
754 753 753 754 753 753 753 753 753 753 757 767 777 779 776 771 765 763 760 758 760 759 766 776 776 775 779 780 777 771 767 770 772 776 782 785 781 776 776 774 768 767 767 769 772 772 777 781 765 753 757 752 743 751 761 756 751 761 769 765 771 790 795 793 810 825 830 839 841 836 835 829 824 822 815 812 811 807 806 806 806 806 805 807 810 810 810 810
754 755 757 755 753 752 753 754 754 755 762 774 781 778 774 769 763 760 759 759 759 761 768 775 774 774 777 778 777 772 771 773 775 780 785 786 783 775 774 775 770 767 767 767 770 771 774 784 775 756 754 754 749 756 768 768 759 756 759 763 769 780 787 791 801 807 817 836 842 838 836 828 817 815 813 812 811 807 806 808 808 808 806 807 809 811 811 811
756 759 761 756 753 754 754 754 756 760 768 777 781 776 772 768 761 758 757 757 759 761 766 771 771 773 774 775 776 773 772 774 775 780 784 785 784 777 772 775 772 769 767 766 769 771 775 785 781 762 755 758 760 761 763 764 764 765 769 773 774 776 779 786 796 801 807 825 836 836 834 826 815 811 810 809 808 806 805 806 808 808 807 808 809 810 811 812
758 763 763 756 754 755 754 757 763 769 773 777 778 774 769 766 762 760 757 755 757 759 762 766 768 771 774 774 776 774 773 776 777 780 783 783 784 782 774 772 773 771 769 768 770 772 775 783 782 771 765 765 763 759 757 757 758 760 766 769 771 776 781 791 805 809 806 812 822 824 822 820 815 809 806 806 805 804 804 805 808 808 807 808 809 810 811 811
762 767 762 756 756 755 756 764 771 774 774 773 773 770 766 764 764 763 759 757 759 759 759 763 766 770 773 773 774 774 775 779 781 781 782 782 783 781 774 770 771 771 769 771 772 770 771 779 781 775 770 767 762 757 759 760 756 754 759 763 767 770 773 785 800 808 809 811 815 818 817 817 813 806 804 805 803 803 804 804 806 807 806 807 808 809 810 810
765 766 759 755 756 755 760 771 773 773 772 769 769 767 765 765 766 764 763 762 763 762 763 765 767 769 771 771 772 774 777 780 783 781 781 781 779 775 773 770 769 769 769 772 773 768 770 782 783 774 769 765 758 755 757 757 756 758 760 763 767 767 767 774 781 791 805 811 812 817 821 819 812 805 805 805 804 805 805 805 806 808 807 807 808 808 809 810
769 767 760 756 755 755 764 774 774 773 772 769 768 767 765 766 767 766 767 767 766 766 767 769 768 768 769 770 771 776 778 780 783 782 781 781 777 772 771 770 768 769 770 772 772 767 774 788 787 782 783 781 773 771 766 760 760 766 768 767 767 768 769 775 780 785 797 808 806 806 817 821 812 807 808 807 806 807 807 807 808 808 809 809 808 809 809 810
770 769 764 759 755 757 766 772 772 774 774 772 772 772 769 768 767 768 770 770 769 768 770 770 769 768 770 770 772 776 777 778 781 782 780 780 776 770 770 770 769 769 768 768 767 766 776 789 788 786 794 798 796 791 782 775 772 772 772 770 770 771 767 771 783 789 794 806 806 801 812 821 814 811 812 810 809 809 809 809 809 808 809 809 810 811 811 811
771 771 770 765 760 762 768 771 772 773 773 774 776 776 774 772 770 768 768 770 770 769 771 773 771 770 772 773 777 780 780 778 780 782 782 781 777 772 771 770 769 769 767 766 766 767 776 787 788 786 789 794 795 789 782 781 779 774 772 772 773 774 768 768 781 788 789 801 809 807 811 818 815 814 815 813 811 811 810 810 810 810 809 809 810 811 812 812
773 776 778 774 770 769 770 772 775 775 773 773 776 778 777 777 774 771 768 770 772 771 773 777 776 775 776 777 781 785 785 782 781 784 787 785 779 775 773 771 770 769 767 766 767 768 776 786 788 785 785 788 789 786 782 781 779 775 773 773 774 773 769 769 776 780 785 795 806 809 810 812 812 812 812 813 812 811 811 811 810 811 810 810 811 812 813 814
775 779 780 778 777 777 775 774 776 777 774 772 775 778 779 779 779 778 774 771 773 773 775 780 783 783 781 779 782 788 790 787 787 788 789 787 783 778 775 772 771 770 769 769 769 771 781 790 789 785 781 782 786 787 783 778 777 780 780 777 776 774 769 769 776 782 782 780 786 799 807 808 807 807 808 810 811 810 811 810 809 810 811 811 812 813 815 815
777 779 779 778 779 781 779 777 778 778 774 772 774 778 780 781 782 782 779 776 778 778 778 785 789 788 784 780 781 790 794 791 792 791 788 787 787 784 782 780 775 772 771 772 773 776 781 788 792 788 779 777 783 786 783 778 776 780 783 782 781 781 775 773 782 789 786 783 786 796 805 806 802 803 806 807 808 808 809 809 810 811 812 813 814 815 816 817
780 782 781 779 779 780 780 779 778 776 773 774 777 779 781 783 782 781 781 782 785 783 782 787 791 788 786 783 782 789 792 789 790 790 786 787 787 786 787 787 782 777 775 775 778 778 778 786 793 788 780 780 783 782 780 782 780 778 781 782 782 785 785 783 786 789 790 797 799 798 805 809 803 799 803 805 806 808 810 811 812 812 813 814 815 817 818 819
782 783 782 781 780 779 780 781 780 777 774 775 778 779 781 783 783 782 783 784 785 784 782 786 789 787 786 786 786 788 788 785 785 784 782 784 784 783 784 785 784 782 780 782 784 781 782 789 791 786 785 787 785 785 783 780 777 776 779 784 785 787 789 788 787 786 788 798 805 805 807 808 800 797 803 806 807 810 811 812 813 814 814 815 817 819 820 821
783 782 782 782 781 781 782 782 782 780 777 777 778 778 780 782 780 782 785 785 783 783 783 784 785 786 788 789 788 786 783 782 782 781 781 782 782 782 783 783 782 782 783 785 788 791 793 792 789 790 793 792 789 790 785 779 782 788 789 790 790 788 788 788 786 785 785 791 800 802 797 793 792 796 802 807 809 811 812 812 813 814 815 816 818 820 821 822
Wind_Speed
12 12 11 11 11 11 11 11 11 12 12 12 12 11 11 11 11 11 11 11 11 11 10 11 11 11 11 11 10 11 13 14 15 11 10 18 17 14 9 9 16 17 17 18 21 17 10 8 8 9 8 4 1 2 2 2 2 1 0 0 1 1 1 1 2 1 3 5 6 4 3 6 6 2 3 6 7 5 6 7 7 8 9 13 17 23 24 23
12 12 12 12 12 12 11 12 12 12 12 13 12 12 12 11 11 11 11 11 10 11 10 10 10 10 10 10 9 10 12 14 14 13 20 22 12 11 14 10 15 22 22 21 23 20 12 7 9 8 4 2 1 2 2 2 2 2 0 1 2 1 0 2 2 2 2 5 6 4 2 5 6 5 4 6 6 5 8 8 9 11 12 15 20 22 21 22
12 12 12 12 12 12 12 12 12 12 12 13 13 12 12 11 11 11 11 11 10 10 10 10 10 10 10 8 8 9 11 11 8 10 14 14 13 12 14 14 16 25 25 23 24 22 17 14 14 9 4 2 1 2 1 1 2 1 0 0 2 1 1 2 2 1 3 7 8 5 2 4 3 2 3 7 8 6 7 8 8 11 12 14 15 18 20 20
12 12 12 12 13 13 13 13 12 12 12 12 13 13 12 12 12 11 11 10 10 10 9 10 9 9 9 7 6 8 8 5 4 5 2 3 9 15 17 17 19 25 23 21 21 18 17 17 13 7 3 1 1 2 2 2 2 1 1 2 2 1 2 3 3 2 5 8 7 5 5 4 2 1 4 11 9 4 6 10 11 13 16 16 13 15 19 18
12 12 12 13 13 13 14 13 13 13 13 13 12 12 12 12 12 11 10 10 10 9 9 9 8 9 7 5 4 6 5 1 3 2 1 4 5 17 21 21 24 25 18 19 18 14 15 14 8 4 3 2 3 2 2 4 3 1 0 1 1 2 2 3 3 3 5 7 7 6 6 4 2 2 5 10 7 4 6 9 13 15 16 17 15 15 16 15
13 13 13 13 13 14 14 14 14 14 14 13 12 12 12 12 11 10 10 9 9 8 8 8 8 8 5 3 3 3 2 1 6 3 2 5 8 22 24 24 27 23 17 20 19 13 12 10 6 4 3 1 3 3 2 5 5 1 1 2 2 1 3 4 4 5 5 7 7 6 4 2 4 4 4 5 2 3 6 9 12 13 15 19 17 15 14 12
14 13 13 14 14 14 14 14 15 14 14 13 12 12 12 12 10 9 9 9 8 8 8 7 7 5 2 2 1 2 2 6 9 4 5 3 16 25 25 27 28 24 18 20 17 9 9 9 7 5 4 2 3 5 2 5 6 2 1 1 3 2 4 5 6 6 6 7 4 4 4 3 5 5 3 3 2 5 8 10 13 14 17 18 15 12 12 11
15 15 15 15 15 15 15 15 15 14 14 13 12 12 12 11 9 8 8 8 8 7 7 6 6 3 0 2 1 2 1 8 9 5 5 4 22 26 26 26 26 25 18 17 16 8 8 9 8 4 3 3 2 4 3 5 5 2 2 3 3 3 5 6 7 7 9 8 3 5 7 4 3 4 3 3 6 9 10 12 13 14 15 13 11 11 10 10
16 16 16 16 16 16 16 15 15 14 14 13 12 12 11 10 8 7 7 8 7 7 6 5 4 1 2 2 1 3 3 6 8 6 2 10 25 26 25 23 23 26 19 15 15 11 8 7 8 6 3 4 2 3 5 5 3 5 6 4 4 4 5 6 7 9 8 6 4 5 6 4 2 1 3 3 8 11 12 13 13 13 13 11 10 10 10 9
18 17 17 17 17 16 16 15 14 14 14 13 12 11 11 9 7 7 6 7 7 6 6 3 1 2 2 1 3 1 5 5 7 4 4 15 26 26 23 21 23 25 19 13 14 12 6 5 6 4 2 2 2 3 6 5 3 7 8 5 6 5 4 5 8 8 7 4 5 7 5 3 3 2 3 4 10 13 12 12 12 13 12 11 9 9 10 10
19 18 18 18 18 17 16 15 15 14 14 13 11 10 10 8 6 6 6 7 6 5 4 2 2 4 3 1 4 4 5 7 7 2 8 17 24 26 23 22 23 24 20 12 12 12 6 7 7 3 1 2 2 3 5 6 6 10 10 8 7 5 4 7 9 7 5 4 4 9 7 3 3 3 1 6 12 14 14 13 12 12 11 11 10 8 8 9
19 19 19 19 19 18 17 16 15 14 14 12 10 9 7 6 5 5 5 4 4 3 2 2 5 7 3 2 4 9 4 8 9 6 11 19 22 25 23 22 24 24 22 13 11 14 8 7 6 3 2 2 3 2 1 4 9 10 9 8 7 6 5 5 7 5 3 3 5 10 7 1 1 2 1 8 13 13 14 13 11 11 9 9 9 7 6 8
19 19 20 20 19 19 17 16 15 14 14 11 9 7 6 5 4 4 3 1 1 1 1 3 7 7 4 1 7 11 8 9 8 4 10 19 18 18 18 20 21 20 20 15 14 18 13 5 2 1 2 2 2 2 1 4 8 8 5 5 6 5 2 3 2 5 6 4 4 6 4 3 3 2 2 9 13 14 13 12 11 9 8 8 8 7 6 8
19 20 20 20 20 19 17 16 15 14 12 10 8 6 5 4 2 2 1 2 2 3 4 6 7 6 2 5 9 8 7 6 8 5 8 16 14 11 12 15 16 15 13 10 10 16 17 7 2 2 2 0 3 3 3 4 3 5 4 2 2 3 2 3 2 5 8 3 1 3 2 5 4 1 5 10 13 15 13 11 11 9 8 7 7 7 6 7
20 20 20 20 20 19 17 15 14 14 11 9 7 5 3 1 0 1 2 4 2 4 7 7 5 3 1 7 8 4 4 4 8 10 9 13 12 9 10 13 13 12 9 7 6 8 15 9 1 1 3 2 1 1 3 3 1 2 3 1 1 1 4 3 4 3 5 3 1 1 2 4 3 2 7 10 11 14 13 11 11 9 9 8 7 7 6 6
20 19 20 20 20 19 17 15 14 13 10 8 6 2 1 2 2 2 4 5 4 7 9 5 2 2 1 4 4 2 3 4 5 7 9 14 12 9 12 13 11 9 7 7 4 2 9 7 1 2 2 1 3 4 3 3 1 1 2 3 2 2 3 4 3 4 1 6 3 1 3 4 2 3 7 10 11 12 12 11 11 9 9 8 7 7 6 6
20 19 19 19 19 18 17 16 14 12 9 7 3 2 3 3 4 5 5 6 7 10 9 3 1 1 2 5 4 3 4 4 5 5 10 14 9 11 15 10 6 8 6 4 5 2 2 3 1 1 0 1 2 5 4 1 2 1 2 2 2 4 5 4 3 4 3 6 3 2 3 3 5 6 7 10 12 11 11 11 11 10 8 8 7 7 6 6
20 19 19 19 18 17 17 16 14 12 8 5 2 4 4 5 5 6 7 8 9 7 4 1 1 1 2 5 3 4 7 6 4 3 11 12 8 13 16 8 6 10 6 2 3 2 1 0 0 0 1 2 3 4 4 3 4 4 3 3 2 3 5 4 4 5 7 6 3 4 4 4 8 8 7 10 12 11 11 11 10 9 9 8 7 7 7 7
20 19 18 18 18 17 17 16 14 11 6 4 4 6 6 6 6 6 6 6 5 1 2 2 2 1 1 4 5 8 11 7 3 4 13 13 9 11 11 9 9 9 6 3 2 2 2 1 2 2 2 2 5 5 5 5 6 7 5 4 4 3 3 3 4 5 8 5 3 6 5 7 9 8 7 8 9 10 10 9 8 8 8 8 8 7 7 8
21 18 17 18 17 17 17 15 14 8 4 3 5 6 4 3 3 2 1 1 4 4 5 4 4 2 4 5 5 9 10 4 3 5 13 15 12 10 4 5 6 5 5 6 3 2 4 3 2 4 6 5 6 7 5 3 5 7 4 3 5 3 2 2 4 6 6 4 2 4 5 8 11 8 6 4 6 10 10 9 9 8 8 8 8 8 8 8
21 18 17 17 16 17 16 15 13 5 3 2 4 4 2 1 2 3 2 3 7 8 9 6 5 5 8 7 6 5 4 2 1 3 12 15 13 9 1 2 5 3 4 5 3 2 4 4 6 6 7 6 6 6 4 3 4 6 3 4 4 2 2 2 5 7 4 2 3 4 5 8 10 8 5 3 5 9 10 11 10 10 10 8 9 9 9 8
22 19 16 16 15 16 16 15 12 4 2 3 2 2 1 2 3 4 1 3 7 7 9 6 3 7 9 10 10 3 3 1 3 2 9 12 8 5 1 4 5 3 2 3 3 2 2 4 7 6 6 4 2 4 5 4 4 5 3 4 4 3 3 3 7 9 3 1 3 6 6 7 8 6 5 3 3 4 4 7 11 11 10 9 9 9 9 8
24 20 17 15 14 15 16 16 10 3 3 5 1 2 2 6 6 6 2 2 6 4 4 4 3 6 5 5 8 6 3 2 1 2 8 11 3 4 4 5 5 4 3 4 4 4 3 5 6 5 5 4 2 3 5 4 3 3 4 4 3 5 5 1 6 8 2 0 4 7 5 5 6 4 3 3 2 1 1 2 7 10 12 12 11 10 10 9
25 22 17 15 14 14 16 15 7 3 8 10 4 2 7 12 7 4 2 1 4 5 3 5 4 5 3 1 8 9 3 3 2 1 8 11 3 2 4 3 5 4 2 5 6 5 4 5 2 6 6 5 4 3 4 4 1 2 4 5 5 7 5 3 7 6 3 1 4 8 4 3 7 8 5 2 2 1 2 1 4 9 11 11 11 10 10 10
25 22 18 15 13 13 15 10 2 6 12 8 3 8 13 16 8 4 2 3 2 5 2 3 2 3 2 3 7 6 2 2 4 3 8 10 6 3 2 2 4 3 4 5 6 3 5 5 5 6 3 4 5 3 4 5 3 2 4 6 8 9 7 10 12 8 3 2 5 8 4 2 8 11 9 5 2 2 1 1 6 9 8 7 8 9 9 9
26 22 18 16 13 12 11 4 2 11 11 3 4 11 15 15 7 5 3 4 1 4 2 0 1 1 0 2 4 3 4 1 4 3 6 10 9 4 2 1 1 3 5 4 3 2 2 2 5 6 4 4 4 3 4 5 5 1 5 7 8 9 11 14 14 8 3 3 5 5 1 1 6 9 9 7 6 6 3 3 6 8 8 7 8 8 8 8
26 22 18 15 14 12 7 2 6 9 4 3 7 11 14 13 3 5 4 4 2 3 2 2 1 2 1 1 2 4 3 4 2 3 3 8 6 3 3 3 1 2 3 3 1 2 2 2 4 6 5 4 4 4 5 6 7 3 5 8 12 10 12 14 11 5 2 3 4 4 0 2 2 6 9 8 8 8 7 6 6 8 9 9 9 9 9 10
26 22 17 14 14 12 7 5 7 5 2 5 8 10 13 8 1 4 5 4 1 2 1 2 2 1 2 0 3 4 2 2 2 1 1 5 3 4 4 4 5 4 2 5 3 5 2 4 4 5 4 3 5 5 6 8 5 3 1 7 10 9 10 9 5 2 2 4 3 5 3 2 1 3 7 8 8 10 11 9 7 9 10 10 10 9 10 10
25 21 17 15 14 10 6 6 7 4 4 8 9 11 11 4 2 4 4 3 2 2 1 2 2 2 3 1 1 2 1 1 1 3 1 4 1 4 4 5 6 5 1 4 5 6 2 5 7 7 5 5 6 6 9 9 4 1 7 11 9 9 8 6 4 3 3 2 3 8 6 2 1 3 7 9 9 10 11 9 7 8 8 9 9 9 9 8
24 20 17 15 13 9 7 9 7 4 8 11 10 10 6 1 4 5 3 1 1 2 2 1 2 1 3 3 2 3 1 1 0 1 2 2 2 5 2 3 5 4 0 3 2 6 3 2 4 4 5 7 6 6 7 8 8 6 10 11 9 6 5 5 3 3 3 2 3 9 9 2 0 4 7 8 6 8 9 5 5 6 6 7 7 7 9 8
22 19 17 15 12 8 5 7 7 8 12 11 8 6 3 2 4 5 2 1 1 3 3 2 2 2 4 4 2 1 1 1 1 3 2 2 3 4 2 2 3 3 3 4 2 4 4 0 3 4 6 5 4 2 1 6 10 8 6 6 6 3 3 4 3 4 3 3 3 8 9 2 1 4 6 6 4 8 10 7 9 9 8 8 6 6 7 7
19 16 15 13 11 9 7 8 11 13 13 7 4 3 3 2 3 2 1 3 1 2 2 3 2 2 3 3 1 2 2 1 2 4 3 3 3 2 1 2 3 1 3 2 2 4 3 3 4 4 4 6 6 3 3 4 6 6 6 6 6 2 2 3 2 2 1 4 2 8 9 2 3 3 3 6 7 11 12 10 11 10 9 9 6 5 5 5
18 14 12 11 10 11 11 12 13 11 9 4 2 4 5 4 2 1 3 2 1 3 1 1 1 2 3 2 1 2 2 1 0 2 2 2 3 2 2 1 4 3 0 3 1 3 2 4 3 1 2 4 8 5 3 4 4 6 8 5 5 3 2 2 1 1 2 5 2 7 8 2 3 1 1 4 7 11 12 9 9 10 10 8 6 5 4 5
16 10 9 9 10 11 12 10 7 6 6 3 4 4 6 4 1 2 2 3 3 3 2 1 1 4 4 2 2 2 2 2 1 3 3 3 3 1 2 2 1 3 2 2 1 1 2 3 4 5 3 4 8 7 7 8 6 6 6 5 5 5 4 3 4 2 2 2 1 6 5 2 1 1 4 6 5 9 11 8 8 8 7 6 6 5 5 5
13 8 7 8 9 10 9 6 2 3 4 4 5 5 5 2 3 2 2 4 2 2 4 3 4 5 4 3 3 2 2 1 3 4 4 3 3 0 1 2 1 2 3 2 2 1 3 4 7 4 2 6 8 6 7 10 6 4 3 5 4 5 5 3 3 5 4 2 2 3 2 2 2 3 5 2 5 8 9 9 10 8 6 6 5 4 5 4
10 6 5 6 8 9 8 4 1 2 4 5 6 5 2 1 3 2 2 3 1 1 3 5 6 5 4 4 4 5 3 3 3 4 4 2 1 2 1 3 1 2 4 3 2 1 1 4 7 4 1 6 8 7 7 8 6 2 2 4 3 3 6 5 3 3 3 3 1 1 1 2 1 3 4 5 9 9 9 9 10 9 7 6 4 4 4 4
11 6 3 5 8 7 5 2 2 1 4 6 5 3 1 2 2 4 2 3 1 2 3 3 3 2 1 2 3 5 4 4 3 3 2 2 1 3 3 4 2 1 3 3 2 2 2 3 6 1 3 5 5 7 5 3 6 6 4 5 3 3 4 4 3 2 3 1 1 1 1 2 0 1 1 6 10 11 10 9 10 10 9 7 5 4 4 4
12 6 3 6 8 4 1 2 3 2 5 5 3 1 1 1 1 3 2 3 0 3 5 3 1 1 1 1 2 5 3 2 3 3 2 2 1 1 2 3 2 2 3 2 1 0 3 2 7 3 4 3 2 7 4 3 2 4 6 5 4 3 1 1 3 2 2 1 2 2 1 2 2 2 2 6 9 11 11 10 10 10 10 8 5 5 5 4
8 4 3 8 8 2 4 5 3 4 6 4 2 1 1 2 3 3 3 1 1 4 4 2 1 2 2 2 0 3 3 2 2 3 2 2 1 1 2 1 3 4 3 2 3 0 2 1 4 4 2 2 4 4 4 1 3 3 5 5 2 2 4 2 2 3 4 2 2 0 1 2 3 2 2 5 7 9 11 11 9 8 8 8 6 5 5 5
4 2 1 8 8 5 8 4 2 5 4 2 1 2 1 2 4 5 4 2 2 2 2 1 2 3 2 1 0 0 3 3 2 3 2 1 1 2 2 0 3 5 4 3 2 1 1 2 3 5 3 1 1 1 5 7 4 4 5 4 1 2 3 3 2 2 4 4 3 2 1 3 2 1 2 4 6 7 9 10 8 6 6 6 5 5 4 3
3 3 2 6 6 7 5 2 3 4 2 0 1 3 2 1 2 6 6 4 3 1 2 3 3 3 2 1 2 0 2 4 3 3 2 1 1 1 2 1 2 4 3 5 3 0 1 1 2 3 3 1 4 4 4 6 6 6 6 6 5 3 4 4 1 1 2 3 3 4 2 4 1 1 1 4 6 6 8 9 7 6 7 6 5 5 5 4
4 2 2 5 1 6 4 4 0 2 1 1 0 2 2 2 2 4 6 5 4 2 2 3 3 2 2 2 1 1 3 3 3 3 2 1 3 2 2 4 2 3 1 1 2 2 2 3 1 2 1 3 6 5 1 3 3 5 4 4 5 4 5 6 4 3 2 2 1 3 1 3 2 1 1 5 6 7 8 8 8 8 8 7 7 7 7 6
3 1 2 6 1 6 5 4 3 3 1 3 2 2 1 1 1 3 5 5 4 2 3 3 1 2 2 1 1 2 3 2 2 2 2 1 1 2 4 7 4 1 3 2 2 1 1 3 2 2 4 4 6 6 4 2 4 5 2 2 4 3 3 5 5 4 4 3 2 3 0 3 1 1 3 6 6 6 6 5 7 8 7 8 8 8 7 7
1 3 3 7 5 3 3 1 2 2 4 4 4 3 2 2 2 3 4 4 3 1 2 2 1 1 2 2 3 2 1 2 2 2 1 2 0 1 3 7 5 3 3 1 2 1 1 2 2 2 3 4 4 5 5 5 3 2 1 2 1 4 7 5 3 4 3 4 4 4 2 3 2 4 5 6 7 6 5 5 6 7 7 7 7 6 6 6
1 1 3 7 8 5 3 3 4 2 3 2 3 4 3 2 2 2 2 3 3 1 2 1 2 2 2 3 4 3 3 4 2 2 2 1 2 2 4 7 5 3 2 2 2 1 2 2 2 4 3 3 3 2 1 3 3 1 0 1 1 5 8 6 3 4 2 4 4 5 3 3 6 8 6 6 7 6 6 6 7 7 6 6 5 5 5 5
2 1 2 6 7 5 2 1 3 2 2 1 2 3 3 2 2 2 2 3 4 4 3 2 3 3 3 5 5 5 6 4 3 2 3 2 3 2 4 5 5 6 6 5 4 2 3 3 2 5 5 4 6 6 4 2 1 1 0 1 1 3 5 6 5 3 4 4 3 3 5 9 11 10 9 9 9 8 6 6 7 8 6 5 4 5 6 7
2 1 1 2 3 4 3 3 5 2 2 3 3 1 2 2 2 4 3 3 3 4 4 3 5 4 2 3 5 3 5 5 5 4 2 3 3 3 5 4 6 10 9 5 5 3 4 3 3 4 4 4 6 6 6 2 2 1 1 1 1 2 5 7 4 5 7 7 2 5 8 13 14 13 12 11 9 9 8 7 7 8 6 5 6 6 8 9
2 1 1 1 1 1 1 3 4 4 2 2 4 1 2 4 4 2 2 2 3 4 3 3 7 6 2 1 4 2 4 4 5 3 2 3 3 4 6 4 5 9 7 4 5 3 5 2 4 1 2 1 0 5 5 1 2 2 3 3 1 1 5 6 3 4 7 5 4 9 12 12 13 14 12 10 9 10 10 8 8 8 7 7 7 8 9 10
2 1 1 1 1 2 2 4 4 3 2 2 3 2 2 4 4 1 2 3 4 5 4 4 6 8 5 3 5 3 2 2 2 3 1 2 3 2 4 4 5 7 7 5 4 3 5 2 4 1 2 5 7 7 7 5 4 5 7 6 5 2 3 6 4 3 4 2 4 13 13 7 7 11 11 9 8 8 8 7 8 9 9 8 8 8 9 8
2 0 2 3 2 1 2 3 3 2 2 3 3 2 2 3 3 1 2 3 2 4 4 5 2 5 6 6 7 4 1 4 3 1 1 2 2 1 1 1 3 5 7 4 4 3 3 1 4 2 3 6 8 10 9 6 5 7 8 9 8 6 5 5 5 5 6 5 7 13 11 5 5 9 10 9 8 8 9 9 8 9 9 9 9 8 8 7
2 1 0 2 2 3 1 2 3 4 2 3 3 2 1 1 2 3 3 2 2 1 2 5 4 2 5 8 8 3 3 5 5 3 3 4 2 1 0 1 3 2 6 4 3 4 3 1 3 4 4 3 6 9 10 7 5 7 9 10 8 5 2 1 1 3 5 8 11 11 8 6 8 11 11 10 10 11 11 10 9 8 9 10 10 9 7 6
4 1 2 3 0 3 3 2 3 3 1 1 2 2 1 2 2 4 4 3 3 2 3 7 6 3 5 7 5 3 5 5 5 4 3 3 3 3 2 2 3 3 2 1 2 3 3 2 2 3 3 3 6 8 7 6 7 5 5 6 5 3 0 0 2 1 7 12 11 6 5 8 12 13 13 13 12 12 11 10 9 8 9 9 10 10 9 7
Wind_Direction
342 340 338 335 334 333 332 333 330 328 327 323 321 319 317 316 313 311 309 308 309 311 311 313 316 317 315 315 314 314 315 311 309 307 260 255 254 236 227 195 179 167 156 164 166 156 139 151 160 156 165 181 166 153 151 140 133 171 229 33 288 235 206 204 151 144 127 137 141 162 184 127 123 114 122 101 78 87 89 77 79 69 80 102 119 133 139 143
341 338 335 333 331 330 330 329 327 326 325 322 320 316 314 313 311 310 308 306 308 310 312 313 315 316 317 318 315 318 322 316 310 289 259 256 258 222 209 187 173 171 163 164 164 153 141 157 166 156 146 158 182 144 152 165 159 208 269 62 286 260 330 23 67 19 74 134 136 139 127 113 129 136 137 119 105 104 92 91 95 92 97 108 123 136 141 142
338 337 334 332 331 330 328 326 325 324 322 321 318 315 314 311 309 308 307 306 307 310 312 312 315 317 318 318 318 323 323 325 312 271 268 261 240 217 187 171 177 176 171 170 169 163 159 161 157 149 131 149 161 126 162 187 164 212 133 170 270 246 132 78 95 58 96 127 125 127 106 91 125 134 133 127 118 119 121 126 119 118 125 125 134 142 143 143
336 335 332 331 330 329 327 325 325 322 320 319 316 315 312 310 308 306 306 305 307 309 310 313 315 316 319 320 317 325 326 327 297 252 318 317 221 205 181 168 174 176 174 172 170 168 159 148 148 146 124 133 111 114 182 186 169 167 157 237 234 182 159 104 90 116 121 126 123 124 112 109 139 27 120 133 126 138 159 156 146 143 141 137 144 146 146 148
336 334 332 330 329 327 325 324 324 322 319 316 314 313 311 310 306 304 305 304 306 307 310 313 315 319 319 323 325 330 344 35 304 298 72 335 205 183 178 169 172 171 166 167 162 153 148 140 142 141 119 139 125 127 216 187 174 105 143 285 210 183 166 114 98 114 119 118 113 116 118 129 128 56 133 143 143 171 171 160 148 146 146 143 147 147 148 150
337 334 332 331 329 327 325 322 321 319 318 315 313 311 310 309 307 305 304 302 305 305 312 314 315 322 316 324 331 340 42 197 306 334 349 328 169 169 170 168 169 161 149 158 153 138 142 142 148 144 133 155 161 189 211 178 175 103 236 287 16 158 159 138 120 116 115 113 115 124 130 106 89 97 133 129 128 150 138 140 139 139 142 142 144 148 150 152
337 335 333 331 329 328 326 322 319 317 316 316 314 311 308 308 308 306 302 301 304 306 312 314 315 317 328 10 323 45 92 256 293 317 332 348 158 162 163 166 166 157 146 153 152 140 143 147 159 145 138 172 194 211 198 168 175 118 230 171 65 85 143 140 121 109 94 86 84 107 102 66 96 116 110 85 99 119 123 129 131 134 137 139 143 149 152 152
340 339 335 333 330 328 327 323 322 319 317 317 316 313 309 307 305 304 305 304 306 311 310 309 318 308 326 96 172 8 335 255 286 308 321 141 152 155 157 163 168 165 156 157 159 150 139 147 165 147 149 211 198 197 175 148 168 158 174 148 106 118 137 128 112 103 90 83 66 75 74 60 94 124 103 112 130 121 126 131 130 134 136 141 147 152 153 152
344 342 338 336 333 331 329 327 327 324 321 321 319 316 310 306 305 306 306 304 303 303 305 303 311 300 150 122 95 326 268 261 302 308 306 151 155 157 161 164 171 172 162 162 164 158 156 155 168 158 165 217 188 181 171 152 184 176 166 154 132 125 122 115 106 109 102 106 137 97 73 68 55 80 85 122 137 128 132 135 135 137 139 147 151 155 157 155
347 344 342 339 338 335 333 332 330 326 324 325 322 315 309 304 305 309 301 297 298 293 301 298 281 128 157 178 102 236 278 319 325 307 153 159 160 161 166 169 172 172 165 165 169 168 167 156 163 147 120 208 203 202 185 174 164 143 142 130 123 116 109 108 101 108 98 88 138 117 86 63 28 48 94 141 140 133 137 139 140 142 145 151 152 158 162 161
349 347 344 343 342 340 337 336 333 330 328 326 321 311 306 306 307 310 301 290 293 290 282 248 178 150 169 109 122 211 302 0 2 39 156 168 166 169 174 174 175 173 165 162 181 181 154 145 156 104 80 259 274 239 195 173 130 129 133 115 112 106 102 107 105 117 105 76 120 108 86 40 31 38 137 157 143 139 143 144 145 146 149 152 151 156 161 165
350 348 346 346 345 343 342 341 338 336 332 328 321 313 308 310 309 307 300 290 295 294 266 210 164 152 139 59 207 227 289 3 9 51 156 171 168 175 181 179 180 180 173 164 186 190 168 152 149 120 206 288 323 301 212 153 127 135 136 115 127 125 101 96 112 134 110 107 136 110 88 10 28 6 202 155 146 144 145 147 149 150 152 151 150 154 161 167
351 348 347 346 347 347 345 345 344 342 337 334 329 321 315 309 307 300 286 288 330 72 114 155 152 142 117 253 245 248 283 309 316 13 155 173 171 174 182 183 182 184 181 173 183 193 189 178 109 144 242 4 320 282 61 106 122 134 123 109 139 129 77 350 74 124 101 120 154 110 103 200 215 297 160 155 149 144 146 152 153 153 154 152 152 155 164 168
352 349 347 347 350 349 346 348 349 347 343 343 340 329 322 310 306 294 234 88 78 108 125 141 140 124 112 254 266 288 302 279 258 249 168 172 169 163 180 184 181 179 173 159 171 194 201 210 6 352 279 217 251 286 92 102 115 126 99 81 124 118 153 300 289 134 113 145 206 71 129 184 206 252 148 159 153 148 152 156 157 157 157 155 157 161 167 173
353 350 348 348 351 350 348 350 352 351 348 348 345 334 330 328 328 263 119 90 102 134 129 134 137 110 29 277 276 303 298 256 241 235 201 179 162 149 177 181 182 181 171 151 135 180 194 199 344 330 274 251 171 22 101 101 86 128 104 122 321 86 146 167 232 186 116 160 224 53 143 158 191 177 148 160 157 152 154 158 161 161 161 161 161 166 170 178
353 351 349 348 351 350 348 349 354 356 349 346 346 351 51 90 99 101 99 88 121 141 130 127 125 111 77 283 287 327 270 253 257 243 213 195 176 158 162 162 171 174 171 180 173 175 176 172 156 190 247 322 101 106 96 72 108 207 99 156 176 138 154 148 202 275 76 141 164 227 156 133 170 162 145 159 160 156 155 159 165 163 165 166 165 172 175 180
353 352 350 349 350 350 347 346 353 1 351 344 356 105 96 96 98 89 93 97 124 139 135 127 42 66 267 281 302 320 288 273 275 247 196 193 190 164 150 138 145 143 134 176 201 241 152 153 206 218 337 52 134 123 106 107 196 241 67 131 166 145 166 156 165 253 200 148 162 179 137 122 146 142 143 160 160 156 160 164 167 167 170 169 170 176 178 185
354 353 350 348 349 348 347 344 353 5 358 354 62 121 106 101 95 90 103 111 122 136 142 192 30 48 267 283 310 298 305 311 294 212 170 176 180 161 148 131 122 125 120 118 162 188 75 25 108 90 347 98 149 137 135 197 186 172 137 128 161 154 175 177 159 188 173 154 140 139 125 118 137 133 135 160 163 160 166 169 170 171 172 174 176 179 184 190
354 353 350 347 347 346 345 343 353 7 10 25 106 129 123 108 95 96 102 106 119 165 272 234 188 34 267 261 289 298 305 305 270 171 156 158 158 158 140 128 127 120 132 125 119 170 135 46 75 132 229 172 164 165 171 203 178 162 144 137 170 168 167 163 130 148 154 141 128 146 143 135 147 146 132 148 163 165 168 169 174 176 175 178 181 185 188 191
355 353 350 347 344 344 343 343 352 9 31 46 138 133 111 81 47 23 48 159 203 234 264 224 185 270 290 265 292 315 318 297 219 163 157 155 151 158 136 119 118 88 128 135 144 184 135 154 201 192 208 191 178 181 169 159 136 134 121 143 174 153 116 116 121 140 147 141 159 165 143 146 158 151 127 119 147 166 172 172 177 181 179 180 184 188 189 196
356 353 349 347 342 342 341 342 349 5 44 49 165 137 103 125 359 314 289 257 235 226 242 236 187 238 265 262 284 334 357 328 316 118 156 158 143 147 165 101 110 91 132 134 130 125 120 172 223 213 204 198 183 175 146 98 112 138 149 161 157 133 116 88 120 140 145 140 176 179 144 154 164 142 122 118 140 167 178 178 180 184 184 183 185 189 192 200
355 352 347 346 341 339 337 339 345 345 22 30 162 166 215 251 297 261 241 309 272 227 226 243 232 255 261 261 262 250 70 348 326 31 155 155 140 150 113 81 119 127 112 101 100 92 125 209 236 218 197 191 147 122 127 119 135 151 160 159 151 138 115 81 122 133 128 34 158 180 164 158 165 136 120 123 125 154 177 184 185 183 184 187 187 190 195 198
352 350 346 344 341 339 334 336 344 341 340 342 283 204 300 336 315 246 203 335 288 262 210 217 219 244 262 261 229 177 115 176 196 320 167 154 148 168 124 86 117 117 95 121 138 137 162 239 239 191 162 157 112 88 122 111 97 146 157 153 160 162 148 129 145 133 104 2 160 174 163 145 157 135 103 77 66 85 352 223 196 186 186 190 189 189 192 191
350 349 345 341 342 341 336 338 353 10 336 326 309 335 347 349 345 212 191 26 295 294 221 196 195 211 243 202 165 152 125 173 165 277 169 150 121 145 139 114 114 109 143 156 147 150 207 244 171 129 152 161 131 115 135 125 123 235 182 161 159 167 152 107 132 123 86 107 158 163 157 162 165 165 174 137 50 305 333 313 210 201 195 189 188 193 192 189
348 347 343 339 342 345 342 346 27 351 334 320 320 352 350 348 357 148 136 36 317 297 259 196 215 220 232 127 157 168 108 165 201 207 169 150 137 132 138 137 115 142 179 143 131 153 252 243 131 112 144 150 134 155 173 162 162 276 231 196 172 159 130 113 129 131 126 175 183 172 176 203 170 172 182 167 163 236 262 224 213 207 198 184 187 197 196 190
346 345 343 337 337 345 350 356 347 339 333 312 334 345 346 344 352 134 101 37 358 306 321 201 233 245 301 124 170 147 75 290 238 174 162 160 152 125 114 157 65 160 173 138 139 174 265 225 131 125 137 132 148 207 221 167 131 248 236 189 157 140 128 135 147 150 155 175 183 186 191 141 169 179 182 172 186 214 227 238 222 204 192 187 192 196 193 192
344 344 342 334 332 342 345 301 319 332 327 304 326 335 340 341 358 128 70 40 19 307 302 287 324 55 16 175 152 107 102 276 254 113 160 167 158 76 110 184 108 159 176 121 160 234 169 131 110 123 120 120 162 220 225 158 129 246 243 161 148 141 141 152 158 157 133 107 148 199 203 72 175 186 178 175 188 210 224 233 224 203 194 194 196 193 190 192
342 343 339 332 331 333 323 301 309 307 260 298 312 326 336 340 108 109 70 70 351 297 246 291 308 347 330 201 118 108 176 242 129 251 277 139 136 55 101 195 169 175 189 123 181 262 168 154 168 155 132 149 193 217 198 162 149 261 263 130 139 130 132 147 138 108 106 101 156 207 182 83 262 177 165 180 195 208 215 219 215 201 197 196 195 194 192 192
341 341 335 330 330 328 317 301 291 275 300 313 316 324 329 333 114 72 65 89 348 307 224 335 328 312 338 38 55 35 7 35 122 255 1 107 87 60 127 196 151 158 220 120 185 251 229 189 183 155 149 193 215 214 184 167 176 169 93 92 92 86 90 97 82 68 73 73 190 197 185 150 245 182 172 193 209 209 207 211 208 197 193 193 191 192 191 189
340 338 330 326 326 325 312 297 285 287 319 323 322 323 332 44 84 59 45 60 325 283 257 332 315 319 56 90 331 346 8 283 215 46 51 88 16 36 120 168 106 121 326 35 211 242 273 225 168 148 176 197 203 204 185 163 153 121 98 90 77 69 69 67 56 66 73 319 228 186 181 155 199 205 191 199 206 194 191 192 189 177 170 175 175 180 183 184
339 335 324 319 317 310 295 301 306 313 320 325 325 330 18 59 65 81 67 267 250 296 312 300 292 31 87 129 202 305 61 314 22 86 84 78 44 30 52 83 64 67 17 359 289 283 328 41 182 216 200 168 150 162 134 149 143 113 102 117 95 47 24 43 8 33 89 268 248 170 167 141 260 228 208 205 178 171 181 183 181 171 159 165 163 163 173 178
337 331 316 309 304 284 267 295 311 314 319 326 344 26 83 53 27 88 268 308 302 268 281 264 272 76 114 139 174 223 150 24 29 98 113 109 118 175 170 168 180 62 350 282 272 330 322 214 223 247 209 152 137 112 70 148 155 110 118 131 102 58 17 53 344 3 158 267 274 157 156 164 249 236 211 205 184 177 185 186 178 165 158 165 156 146 153 160
335 325 309 301 296 286 289 303 308 313 321 328 36 52 78 77 32 283 267 313 262 240 229 254 270 99 121 108 319 259 126 90 301 87 86 91 115 208 268 205 160 127 188 215 275 354 304 272 272 197 226 173 150 142 131 169 176 135 143 140 112 114 93 94 286 334 243 279 309 147 156 229 257 220 245 232 204 185 185 183 166 152 157 161 146 140 134 127
336 322 306 301 300 303 310 314 311 314 328 7 68 59 62 70 308 294 292 258 250 284 341 352 48 49 48 67 280 276 80 41 5 84 52 41 66 349 326 347 113 113 116 163 205 140 154 263 239 181 213 188 167 174 161 152 160 167 162 140 139 155 144 162 191 183 200 255 64 138 162 225 218 261 279 253 216 179 170 161 140 139 150 147 139 145 135 127
338 322 311 308 309 314 320 323 322 336 349 33 65 63 64 55 268 276 274 258 270 331 329 359 69 53 8 337 322 336 107 59 30 64 44 51 90 90 310 317 334 100 118 157 242 176 140 244 248 242 220 166 174 186 146 134 157 200 148 113 152 183 154 143 163 157 151 131 118 163 194 234 202 286 305 216 151 141 139 136 132 137 143 139 144 147 141 139
346 336 320 310 313 319 325 328 289 10 24 59 65 57 77 243 248 193 226 270 323 340 329 10 54 58 352 326 336 350 43 67 54 56 31 41 98 8 322 262 290 112 143 170 220 183 96 267 274 310 284 183 184 178 157 155 160 146 121 157 198 167 128 115 106 99 100 116 196 212 285 307 264 305 350 94 124 131 137 144 145 147 150 153 156 147 151 154
356 357 340 327 333 327 323 321 177 51 46 76 77 71 208 239 204 189 258 306 304 85 78 56 42 59 1 336 329 336 7 34 40 61 43 9 341 348 330 279 261 169 186 188 216 190 134 277 292 293 206 230 183 139 137 169 145 133 172 191 170 77 84 105 109 62 56 115 264 303 278 289 261 275 35 111 133 148 155 160 158 159 165 170 169 159 165 167
348 354 7 350 347 341 325 151 148 90 68 71 45 39 201 304 211 205 284 324 339 66 75 96 97 109 127 75 334 324 357 40 26 54 82 36 352 355 355 303 261 249 244 188 155 21 113 292 293 248 199 287 42 105 94 354 74 143 167 156 123 127 173 108 120 135 106 119 277 314 317 259 190 197 181 147 152 158 159 160 161 168 173 175 175 170 175 176
351 5 19 354 354 57 141 155 139 63 64 65 14 307 195 287 276 260 288 323 88 68 66 97 99 84 105 102 326 324 27 95 96 79 92 61 10 96 70 340 280 307 312 132 132 251 97 94 284 271 235 318 19 89 145 168 20 57 128 129 102 140 162 154 135 151 138 146 231 258 355 257 214 222 201 166 159 154 154 159 161 166 172 175 177 175 183 186
19 45 358 1 22 121 157 169 78 51 59 88 211 239 294 280 285 312 323 15 71 71 71 85 74 77 79 63 107 337 43 53 98 97 92 90 355 323 11 36 286 308 332 43 97 155 63 92 254 291 327 102 137 160 177 168 133 105 130 150 146 76 122 135 88 85 125 143 177 149 276 259 229 267 235 153 143 153 156 154 154 159 164 163 157 147 158 168
52 49 287 1 39 143 150 41 35 60 57 2 263 256 299 336 318 331 337 19 57 93 127 125 112 103 123 68 32 18 52 31 40 83 90 73 85 308 326 60 266 285 343 27 33 53 90 125 216 302 4 126 228 236 191 179 164 144 154 173 169 131 120 128 143 308 110 130 161 152 195 262 264 304 264 131 130 145 141 130 130 141 147 140 122 118 127 136
64 64 285 355 23 177 100 36 298 88 100 221 286 258 291 23 21 341 343 13 44 53 66 81 100 96 123 138 50 44 84 54 20 69 129 157 127 179 303 344 295 236 130 40 299 242 165 107 87 284 234 210 260 276 207 196 171 126 142 165 149 133 122 134 179 209 108 93 109 108 116 280 290 320 129 120 120 126 129 129 130 136 141 135 121 117 120 123
80 224 292 14 46 180 84 27 298 13 334 247 281 277 273 38 17 350 3 20 32 37 36 27 33 61 64 99 79 57 74 76 51 74 164 191 121 223 305 336 326 185 86 27 297 254 113 71 52 305 301 310 308 324 1 34 91 91 60 73 121 145 134 137 166 161 133 153 137 85 40 266 270 78 111 120 121 128 134 134 132 133 135 132 129 132 135 132
110 244 275 9 26 143 103 40 263 328 298 298 355 338 323 47 48 23 20 12 3 44 66 21 345 46 44 61 80 66 51 93 76 25 108 135 47 309 351 359 1 42 52 329 266 274 43 49 68 55 11 359 353 356 358 355 25 77 332 341 90 117 105 108 108 80 111 184 150 130 208 245 127 112 126 131 130 136 134 117 116 123 127 130 134 142 139 125
14 240 267 343 17 62 118 175 161 193 281 343 16 337 345 32 25 28 55 33 4 47 101 4 350 54 35 38 56 33 31 89 96 0 38 90 293 313 12 7 14 39 352 291 289 357 77 78 95 115 126 155 164 179 264 308 321 313 309 333 125 124 120 126 113 86 144 188 144 142 189 181 139 138 146 146 137 137 131 115 113 118 121 128 131 128 119 101
35 96 299 331 6 47 83 168 94 115 232 107 56 346 29 57 328 334 79 72 20 29 60 7 351 48 40 43 56 22 8 36 75 60 45 355 290 292 349 356 19 14 344 345 10 48 102 73 90 130 138 173 192 219 248 249 250 259 199 75 120 135 117 109 112 143 173 159 158 204 170 152 156 160 160 159 151 147 143 125 118 120 118 115 108 99 95 88
60 90 17 338 341 20 16 7 41 41 226 133 105 331 17 52 344 341 22 62 30 33 60 22 12 40 37 55 78 35 353 8 32 40 9 311 282 289 323 351 13 358 346 354 8 52 98 28 355 112 130 174 200 244 272 248 187 222 2 44 122 141 109 107 143 189 155 136 197 222 168 157 168 172 165 163 158 152 151 140 127 125 119 108 98 92 95 95
51 138 166 137 205 13 10 335 356 346 307 100 104 64 27 53 52 18 341 11 21 27 70 37 5 4 339 117 111 68 348 13 22 0 322 332 335 333 343 352 356 357 4 9 359 63 106 20 323 43 80 87 37 307 316 67 118 57 43 35 1 195 139 130 164 182 146 151 206 184 167 167 171 166 159 159 158 153 151 147 136 127 116 106 100 98 100 100
36 64 289 29 134 196 221 302 331 350 342 51 79 61 71 77 70 49 305 20 17 2 60 75 354 349 2 66 108 99 23 67 41 331 297 359 356 5 14 349 327 352 20 28 6 66 106 5 313 316 20 18 13 356 6 42 58 49 40 31 24 36 126 120 111 97 93 88 161 153 151 153 152 150 150 150 153 148 140 136 132 127 120 113 104 101 103 105
41 40 303 15 15 275 249 324 5 61 21 30 71 65 76 90 85 66 11 56 61 346 39 90 40 6 31 50 78 93 173 166 142 329 170 102 21 33 68 292 284 341 9 25 359 13 83 9 309 5 40 358 357 2 3 15 58 66 44 26 29 43 59 83 108 105 77 70 118 131 131 128 134 139 140 141 141 140 137 135 132 129 127 121 109 101 105 109
354 235 131 76 7 340 3 357 45 91 35 20 116 138 82 123 135 105 51 50 119 98 101 139 141 42 34 44 57 44 270 201 187 250 223 163 130 121 120 206 195 352 3 15 359 1 56 48 333 40 54 329 344 3 349 348 44 55 31 14 9 16 45 83 159 149 128 123 125 129 140 159 154 142 137 140 144 146 146 142 137 135 133 127 118 110 105 101
359 302 44 87 352 349 17 353 29 92 126 267 172 149 139 210 199 100 83 13 20 72 155 161 143 83 38 37 31 315 274 226 214 251 234 163 113 89 84 88 110 95 50 55 33 15 75 85 15 58 74 301 326 350 341 0 37 18 346 349 337 316 270 133 331 46 139 139 140 158 174 155 148 146 144 146 150 152 152 149 143 138 133 126 122 120 111 99